Zurück zum Katalog

STARLINK-30906

AktivKommunikationVLEO
NORAD 58408·PAYLOAD·🇺🇸 United States

Gestartet Nov 22, 2023 von Cape Canaveral Space Force Station

Loading…

Nächste Überflüge (nächste 24 Stunden)

TLE

AktuellSource: CelesTrak SupGP

Epoche: Sep 14, 2026, 22:49 UTC

1 58408C 23180G   26257.95118056  .00057317  00000+0  20754-2 0  2575
2 58408  43.0031  67.4366 0001964 269.6472 152.2606 15.27558913    15

Verfolge STARLINK-30906 in Echtzeit mit AllMySat

Download on the App Store